Lapse_Rate
4.8 8.9 8.6 9.4 9.3 9.1 8.5 7.5 6.5 6.6 7.7 8.0 8.7 8.7 7.7 8.0 7.9 7.0 7.3 6.6 6.3 7.5
1.6 1.4 2.4 3.6 6.0 8.4 9.0 9.2 8.7 7.5 7.3 7.8 7.9 8.9 8.9 8.6 8.5 8.5 7.9 7.3 6.8 7.1
5.3 3.5 2.2 1.4 1.0 1.5 2.6 4.0 3.4 7.5 8.0 8.1 7.8 7.9 8.0 8.3 8.5 8.9 8.8 8.9 8.3 8.1
5.5 5.1 5.1 4.4 3.4 2.6 1.8 1.9 1.6 2.2 3.9 6.6 7.8 8.1 8.2 8.0 8.3 8.3 8.7 8.7 8.3 8.0
5.4 5.4 5.0 5.0 4.2 4.9 4.6 4.4 2.3 1.3 1.8 2.1 3.1 3.7 3.8 5.0 6.8 7.9 7.9 7.3 7.6 7.0
4.7 4.7 4.3 4.3 5.1 4.8 4.5 4.5 4.7 5.3 3.6 3.6 1.8 1.6 1.7 1.9 2.5 3.3 4.8 6.2 7.3 7.8
4.6 4.7 4.6 4.1 3.8 4.1 5.0 4.8 4.4 4.6 4.8 5.3 5.3 4.6 3.9 2.9 3.1 3.1 3.3 4.2 4.7 6.2
5.9 5.2 4.3 3.7 3.8 3.7 4.0 4.6 5.4 4.9 4.8 5.1 5.9 3.2 1.9 2.6 3.3 5.2 4.7 4.2 3.4 3.1
7.0 6.9 6.4 4.9 4.5 3.7 3.0 3.8 4.3 4.6 5.5 5.5 6.3 0.0 -0.3 -0.5 3.6 4.7 5.9 5.8 5.5 4.8
9.2 8.9 6.6 5.5 4.7 3.8 2.8 2.4 2.7 3.8 4.2 4.1 5.5 1.5 1.1 0.3 3.0 4.4 6.0 6.9 7.6 7.8
9.3 9.1 5.8 7.2 5.5 4.0 4.2 3.7 3.4 3.2 3.8 4.6 5.0 2.1 0.4 -0.8 2.8 4.3 5.3 6.3 6.8 6.6
9.5 9.2 9.2 6.8 5.5 3.8 4.8 4.9 4.0 5.6 5.3 5.1 4.9 2.3 1.8 1.2 4.2 4.1 4.0 5.5 6.1 5.4
9.6 9.5 9.3 9.2 8.9 8.9 8.8 6.5 6.4 6.8 5.7 5.6 5.3 5.2 3.7 2.4 5.5 5.0 5.4 5.5 6.4 4.3
9.6 9.5 9.5 9.4 9.2 8.9 8.6 7.3 5.1 4.8 4.5 5.0 5.4 5.9 4.9 3.8 6.4 7.3 5.1 4.8 5.4 6.7
Wind_Speed
15 8 11 13 11 8 10 11 14 12 11 12 13 14 14 12 12 15 13 17 14 11
15 16 12 15 11 5 8 8 8 15 15 16 15 16 14 12 14 14 15 15 15 12
15 14 13 13 14 14 12 11 13 5 13 14 15 15 15 13 15 15 12 12 15 14
13 13 12 11 10 9 10 12 12 11 10 7 14 14 13 14 14 15 15 15 16 17
12 12 12 11 12 10 11 9 9 10 10 10 8 8 6 5 11 17 16 15 16 15
13 13 13 13 12 12 11 11 9 8 7 7 8 7 6 6 6 6 7 8 9 12
11 11 11 11 11 12 12 10 11 10 9 6 5 5 7 6 5 5 5 8 10 13
10 10 10 10 10 10 11 11 11 9 9 7 7 4 7 7 7 9 7 5 6 5
11 11 11 12 11 11 10 11 12 12 10 9 6 1 3 7 7 9 9 4 5 5
12 13 12 11 12 13 12 11 10 10 11 11 10 3 7 7 8 10 9 10 9 9
13 13 7 11 12 10 12 11 10 10 10 10 8 11 6 5 10 10 12 11 10 10
13 13 13 7 3 5 10 10 8 11 12 10 10 10 13 9 9 9 10 11 12 8
15 15 15 13 12 11 12 12 11 13 13 16 15 12 8 8 9 11 9 12 13 9
13 14 15 15 13 13 13 13 13 14 13 15 15 14 8 1 10 9 9 8 8 6
Wind_Direction
356 236 219 233 228 237 216 203 213 223 224 230 232 224 224 223 219 221 222 223 223 228
29 28 16 7 360 302 267 266 223 197 198 213 229 234 227 229 226 224 222 223 222 223
26 25 23 30 25 16 0 353 359 270 202 213 219 222 223 227 231 232 226 223 221 223
25 23 17 21 23 7 14 13 16 3 351 278 239 234 222 224 229 228 230 227 222 223
24 25 25 11 16 1 11 1 9 7 11 17 12 6 4 307 244 235 235 233 230 233
15 14 12 13 9 12 5 0 1 352 20 358 3 10 16 353 338 326 295 269 255 241
7 3 5 2 4 4 1 357 1 355 348 345 345 3 339 1 322 313 298 318 311 296
354 351 0 355 357 355 359 352 351 355 349 342 340 7 9 336 340 301 286 268 263 258
345 348 350 350 345 347 355 348 345 346 339 347 324 355 9 1 307 306 288 282 280 268
340 338 343 341 351 346 342 341 335 326 331 327 326 344 312 293 324 307 301 300 301 295
340 330 324 336 335 331 326 327 325 322 312 310 313 330 3 326 310 302 293 286 290 285
333 327 328 328 312 315 321 320 313 313 315 312 307 321 313 304 310 303 287 279 275 272
331 330 329 329 323 330 325 323 320 316 314 313 304 306 302 291 304 295 296 296 291 279
324 327 324 324 327 327 324 318 314 311 310 310 307 310 336 222 327 303 296 299 295 294